Regional Weather Roundup
Issued by NWS Goodland, KS

Home | Current Version | Previous Version | Graphics & Text | Print | Product List | Glossary On
Versions: 1 2 3 4 5 6 7 8 9 10 11 12 13 14 15 16 17 18 19 20 21 22 23 24 25 26 27 28 29 30 31 32 33 34 35 36 37 38 39 40 41 42 43 44 45 46 47 48 49 50
000
ASUS43 KGLD 290159
RWRGLD

GOODLAND FORECAST AREA HOURLY WEATHER ROUNDUP
NATIONAL WEATHER SERVICE GOODLAND KS
700 PM MST FRI NOV 28 2014

...OFFICIAL OBSERVATIONS...

CITY           SKY/WX    TMP DP  RH WIND       PRES   REMARKS
GOODLAND KS    CLOUDY    47  16  29 S7        29.76F
HILL CITY KS   CLOUDY    49  20  31 W5        29.71F
IMPERIAL NEB   CLOUDY    45  18  34 SW9       29.73S
MCCOOK NEB     MOCLDY    50  13  22 SW9       29.70S
AKRON CO       CLOUDY    57  12  17 S7        29.78F
BURLINGTON CO  CLOUDY    49  13  23 SW6       29.78F
LIMON CO       CLOUDY    34  17  50 NW6       29.83F
$$

...UNOFFICIAL OBSERVATIONS...

CITY           SKY/WX    TMP DP  RH WIND       PRES   REMARKS
COLBY KS       CLEAR     57  27  30 S6        29.75F
NORTON KS      CLEAR     50  12  22 SW7       29.70S
SHARON SPRINGS   N/A     54  21  27 SW10        N/A
TRIBUNE KS     CLOUDY    52  30  43 S8        29.79F
TRENTON NEB      N/A     57  32  39 CALM        N/A
YUMA CO          N/A     46  24  42 CALM        N/A
$$



USA.gov is the U.S. government's official web portal to all federal, state and local government web resources and services.